Regional Weather Roundup
Issued by NWS

Current Version | Previous Version | Text Only | Print | Product List | Glossary On
Versions: 1 2 3 4 5 6 7 8 9 10 11 12 13 14 15 16 17 18 19 20 21 22 23 24 25 26 27 28 29 30 31 32 33 34 35 36 37 38 39 40 41 42 43 44 45 46 47 48 49 50
000
ASCA44 KEWX 011420
RWRMX

LATIN AMERICA AND CARIBBEAN REGIONAL WEATHER ROUNDUP
NATIONAL WEATHER SERVICE AUSTIN/SAN ANTONIO TX
900 AM CDT SAT AUG 01 2015

NOTE: "FAIR" INDICATED FEW OR NO CLOUDS BELOW 12,000 FEET WITH NO
SIGNIFICANT WEATHER AND/OR OBSTRUCTIONS TO VISIBILITY.

BAJA CALIFORNIA

CITY           SKY/WX    TMP DP  RH WIND       PRES   REMARKS
TIJUANA        CLOUDY    68  61  77 CALM      30.02R

NORTHWESTERN MEXICO

CITY           SKY/WX    TMP DP  RH WIND       PRES   REMARKS
CULIACAN       PTSUNNY   82  77  83 CALM      29.88  HX  91
DURANGO        CLOUDY    64  55  72 CALM      30.29R
GUAYMAS        PTSUNNY   88  73  62 CALM      29.78  HX  96
HERMOSILLO     MOSUNNY   86  70  58 CALM      29.89R HX  90
CD. JUAREZ     MOSUNNY   75  63  64 N9        30.10R
OBREGON        PTSUNNY   86  72  62 E9        29.81R HX  92

NORTHEASTERN MEXICO

CITY           SKY/WX    TMP DP  RH WIND       PRES   REMARKS
CHIHUAHUA      MOSUNNY   70  52  52 S6        30.19R
MATAMOROS      CLOUDY    84  77  79 CALM      29.97R HX  94
MONCLOVA       MOSUNNY   81  63  54 E5        30.02S
MONTERREY      PTSUNNY   81  66  61 NW3       30.00R
NUEVO LAREDO   SUNNY     82  72  69 CALM      29.97S
PIEDRAS NEGRAS MOSUNNY   81  73  78 E6        30.00S
REYNOSA        PTSUNNY   79  70  73 NE2       29.95R
SALTILLO       MOSUNNY   72  59  64 CALM      30.23R
TORREON        MOSUNNY   77  59  53 CALM      30.12R
CD. VICTORIA   CLOUDY    75  75 100 CALM      29.96R

WESTERN MEXICO

CITY           SKY/WX    TMP DP  RH WIND       PRES   REMARKS
AGUASCALIENTES MOSUNNY   59  50  72 NE8       30.30R
COLIMA         PTSUNNY   73  72  94 CALM      30.05
DEL BAJIO      MOSUNNY   61  50  67 W5        30.32
GUADALAJARA    SUNNY     66  59  77 CALM      30.21R
MAZATLAN       PTSUNNY   75  70  83 N9        29.86R
P. VALLARTA    CLOUDY    81  77  89 N2        29.88S
URUAPAN          N/A    N/A N/A N/A MISG        N/A
ZACATECAS      MOSUNNY   59  46  63 CALM      30.31S

CENTRAL MEXICO

CITY           SKY/WX    TMP DP  RH WIND       PRES   REMARKS
CUERNAVACA     MOSUNNY   73  57  56 CALM      30.17R
MEXICO CITY    SUNNY     57  50  77 E9        30.35R
MORELIA        MOSUNNY   61  57  88 CALM      30.26R
POZA RICA      PTSUNNY   75  72  88 CALM      29.98R
PUEBLA         MOSUNNY   55  48  76 N3        30.35R
QUERETARO      SUNNY     57  54  88 E6        30.34R
S. LUIS POTOSI PTSUNNY   61  50  67 CALM      30.27S
TAMPICO        MOSUNNY   81  73  78 SE2       29.94R
TOLUCA         PTSUNNY   52  48  87 CALM      30.42R

SOUTHERN MEXICO

CITY           SKY/WX    TMP DP  RH WIND       PRES   REMARKS
ACAPULCO       MOSUNNY   82  73  74 N7        29.88S
B. DE HUATULCO MOSUNNY   79  63  57 CALM      29.94S
OAXACA         PTSUNNY   63  59  88 N6        30.25R
P. ESCONDIDO   PTSUNNY   75  70  83 NE10      29.97S
VERACRUZ       MOSUNNY   79  73  83 CALM      29.94R
ZIHUATANEJO    PTSUNNY   79  73  83 CALM      29.91S

YUCATAN PENINSULA

CITY           SKY/WX    TMP DP  RH WIND       PRES   REMARKS
CAMPECHE       SUNNY     79  73  83 SE9       29.93R
CANCUN         PTSUNNY   86  77  74 E9        29.98S HX  97
CHETUMAL       MOSUNNY   84  73  70 NE7       29.97R HX  91
CD. DEL CARMEN SUNNY     82  73  74 SE20      29.94R
COZUMEL        SUNNY     81  75  83 E8        29.98S
MERIDA         SUNNY     82  73  74 SE7       29.97R
MINATITLAN     MOSUNNY   79  68  69 CALM      29.89R
TAPACHULA      MOSUNNY   81  73  78 CALM      29.89R
TUX. GUTIERREZ MOSUNNY   73  66  78 CALM      29.99R
VILLAHERMOSA   MOSUNNY   81  75  83 E8        29.95R

CENTRAL AMERICA

CITY           SKY/WX    TMP DP  RH WIND       PRES   REMARKS
BELIZE CITY    MOSUNNY   86  77  74 E8        29.96R HX  97
MANAGUA        MOSUNNY   84  72  65 E9        29.86S

CARIBBEAN

CITY           SKY/WX    TMP DP  RH WIND       PRES   REMARKS
ARUBA          MOSUNNY   88  77  70 E22G33    29.92S HX 100
CURACAO        MOSUNNY   86  75  70 E16       29.97R HX  95
KINGSTON       MOSUNNY   88  73  62 SE18      29.94  HX  96
NASSAU         PTSUNNY   88  75  66 S15       30.05R HX  97
SAN JUAN       MOSUNNY   88  75  66 E18       30.06R HX  97
SANTO DOMINGO  MOSUNNY   86  77  74 E14       30.03R HX  97
ST. CROIX      SUNNY     90  72  55 E23G29    30.05R HX  96
ST. KITTS      MOSUNNY   88  72  58 E17       30.03S HX  94
ST. MAARTEN    MOSUNNY   86  72  62 E15       30.03S HX  92
ST. THOMAS     MOSUNNY   90  72  55 E15G21    30.05R HX  96

$$



USA.gov is the U.S. government's official web portal to all federal, state and local government web resources and services.